Theta_e
347 349 352 347 343 341 342 343 345 347 345 347 346 344 344 342 340 339 337 335 334 333
351 354 350 350 346 345 346 347 346 348 345 345 345 343 342 340 339 338 337 335 335 332
353 355 352 352 348 348 349 348 347 345 345 344 342 342 340 338 338 336 336 335 334 333
351 353 352 349 345 347 347 345 344 343 342 341 341 340 338 337 336 333 333 333 332 329
347 346 346 345 344 345 343 342 341 341 339 338 337 337 336 334 334 332 331 329 328 328
341 342 343 343 343 343 342 342 338 337 336 334 334 334 335 334 333 332 331 329 327 324
342 342 342 341 342 340 339 338 337 335 333 334 334 335 335 335 333 332 332 328 323 322
341 341 340 339 339 339 338 337 335 336 334 334 331 328 333 334 333 332 328 325 323 323
337 336 337 338 338 339 335 335 336 333 334 331 325 305 312 326 331 328 325 322 323 325
334 333 334 335 334 332 333 336 334 334 334 330 323 305 309 313 332 328 325 323 324 325
331 332 332 331 332 333 336 337 335 334 332 328 320 306 308 317 330 327 325 324 324 327
330 329 330 330 333 336 334 334 334 333 330 327 323 306 308 320 326 325 324 324 324 325
329 331 329 332 334 335 334 334 335 332 329 318 325 304 309 318 325 322 320 320 321 306
329 330 334 335 336 334 333 333 332 329 327 327 325 318 304 304 327 323 320 319 316 314
Wind_Speed
13 8 8 11 9 7 8 9 10 10 10 8 8 6 6 4 4 4 4 6 3 2
11 10 12 11 13 10 10 9 12 10 8 8 6 7 6 4 4 4 5 3 3 2
10 8 12 10 14 13 9 12 11 10 7 6 6 6 6 4 5 5 4 3 4 3
10 10 12 11 9 12 10 10 8 7 7 6 5 5 7 5 4 5 6 5 5 4
12 11 11 10 10 10 9 8 7 7 7 7 6 6 6 5 5 6 7 6 5 4
8 10 11 10 9 8 7 6 7 5 6 5 7 6 6 5 5 4 7 7 6 4
11 11 10 10 8 8 6 6 6 5 6 5 5 5 4 3 2 5 6 6 5 5
11 10 10 8 7 7 7 5 7 5 6 6 8 6 5 3 4 5 7 6 5 4
11 11 9 8 7 7 8 7 5 6 6 9 7 6 7 4 5 6 5 6 5 4
12 11 8 8 7 8 7 6 6 7 9 9 7 7 6 3 2 6 5 5 5 4
12 11 9 6 9 6 7 6 6 9 9 9 5 6 6 7 6 7 5 4 2 3
12 11 6 10 8 8 8 5 5 9 9 8 5 4 4 6 6 5 5 4 2 1
14 12 9 9 8 7 6 6 5 9 9 10 6 4 6 4 6 6 5 4 3 8
11 12 11 7 5 8 6 7 8 10 7 7 7 5 7 7 4 5 5 4 3 2
Wind_Direction
205 186 145 146 141 161 174 185 182 190 184 187 177 151 120 127 163 171 186 214 189 81
193 188 150 154 155 175 175 174 176 176 171 174 163 131 142 166 179 174 198 168 158 179
173 163 147 148 168 167 155 154 166 168 173 146 125 148 147 196 186 156 162 164 154 186
174 136 131 150 130 137 149 144 155 149 135 141 157 176 194 123 139 175 169 175 158 208
119 126 120 116 122 126 129 144 162 158 159 169 175 142 137 174 208 205 175 161 157 204
121 127 123 123 125 134 145 148 127 134 167 147 124 145 168 176 217 172 161 159 160 167
135 132 132 133 142 132 144 139 151 145 106 126 134 120 96 113 145 163 150 137 142 129
135 132 129 134 139 146 148 128 108 104 87 103 71 47 50 77 102 123 125 135 139 157
139 137 141 141 146 115 112 110 119 104 107 86 83 56 53 38 115 130 140 146 154 189
148 146 126 136 109 120 111 124 113 109 102 96 92 60 40 21 114 121 131 160 166 188
130 125 132 134 124 117 109 112 118 112 107 93 85 60 46 61 100 102 111 109 156 178
133 143 152 130 129 120 121 143 127 119 112 114 102 43 57 108 90 103 114 103 119 254
138 127 121 134 142 123 140 149 121 102 103 111 115 55 39 49 131 126 112 90 95 29
136 137 132 141 137 133 162 132 119 107 116 118 113 81 39 21 164 135 120 115 103 81